Location: Newark
(45.8667°N, 9.7333°E)
Time: 08:14:33
(UTC+00:00)

Vanguard 1 Rocket - All Passes

Search period start: 29 January 2020 00:00
Search period end: 08 February 2020 00:00
Orbit: 651 x 4226 km, 34.3° (Epoch: 28 January)

Date Brightness Start Highest point End Pass type
(mag) Time Alt. Az. Time Alt. Az. Time Alt. Az.
29 Jan - 07:37:59 10° SSW 07:43:18 26° SSE 07:51:35 10° E daylight
29 Jan - 10:00:00 10° WSW 10:08:03 47° S 10:23:16 10° ESE daylight
29 Jan - 12:24:06 10° W 12:35:08 42° SSW 12:54:23 10° SE daylight
29 Jan - 14:51:19 10° W 15:03:32 24° SW 15:20:14 10° S daylight
30 Jan - 06:29:59 10° SSE 06:32:59 14° SE 06:36:42 10° ESE daylight
30 Jan - 08:50:03 10° SW 08:56:39 39° SSE 09:08:32 10° ESE daylight
30 Jan - 11:13:20 10° WSW 11:22:41 45° S 11:39:57 10° ESE daylight
30 Jan - 13:38:47 10° W 13:50:31 31° SSW 14:08:34 10° SSE daylight
30 Jan - 16:13:43 10° WSW 16:18:49 11° SW 16:24:23 10° SSW daylight
31 Jan - 07:40:32 10° SSW 07:45:49 29° SSE 07:54:15 10° E daylight
31 Jan - 10:02:59 10° WSW 10:10:45 45° S 10:25:17 10° ESE daylight
31 Jan - 12:27:18 10° W 12:37:44 37° SSW 12:55:26 10° SE daylight
31 Jan - 14:55:49 10° WSW 15:05:53 18° SW 15:18:56 10° S daylight
01 Feb - 06:31:50 10° S 06:35:24 17° SE 06:40:06 10° ESE daylight
01 Feb - 08:52:57 10° SW 08:59:21 40° SSE 09:10:50 10° ESE daylight
01 Feb - 11:16:28 10° WSW 11:25:22 40° S 11:41:29 10° SE daylight
01 Feb - 13:42:30 10° WSW 13:53:01 25° SSW 14:08:29 10° SSE daylight
02 Feb - 07:43:15 10° SW 07:48:26 31° SSE 07:56:50 10° ESE daylight
02 Feb - 10:06:02 10° WSW 10:13:30 42° S 10:27:12 10° ESE daylight
02 Feb - 12:30:41 10° WSW 12:40:22 30° SSW 12:56:09 10° SSE daylight
02 Feb - 15:02:04 10° WSW 15:08:19 13° SW 15:15:38 10° SSW daylight
03 Feb - 06:34:06 10° SSW 06:37:56 20° SSE 06:43:11 10° ESE daylight
03 Feb - 08:55:55 10° WSW 09:02:06 39° S 09:13:04 10° ESE daylight
03 Feb - 11:19:41 10° WSW 11:28:06 35° SSW 11:42:48 10° SE daylight
03 Feb - 13:46:47 10° WSW 13:55:34 19° SSW 14:07:38 10° S daylight
04 Feb - 07:46:05 10° SW 07:51:10 32° SSE 07:59:21 10° ESE daylight
04 Feb - 10:09:10 10° WSW 10:16:17 37° S 10:29:00 10° SE daylight
04 Feb - 12:34:21 10° WSW 12:43:03 24° SSW 12:56:24 10° SSE daylight
05 Feb - 06:36:36 10° SSW 06:40:35 22° SSE 06:46:04 10° ESE daylight
05 Feb - 08:58:58 10° WSW 09:04:55 37° S 09:15:14 10° ESE daylight
05 Feb - 11:23:04 10° WSW 11:30:53 29° SSW 11:43:48 10° SSE daylight
05 Feb - 13:52:29 10° SW 13:58:12 13° SSW 14:05:09 10° SSW daylight
06 Feb - 05:28:01 10° S 05:30:13 13° SSE 05:32:41 10° ESE visible
06 Feb - 07:49:01 10° SW 07:53:57 32° S 08:01:49 10° ESE daylight
06 Feb - 10:12:24 10° WSW 10:19:07 32° S 10:30:35 10° SE daylight
06 Feb - 12:38:33 10° WSW 12:45:47 18° SSW 12:55:57 10° S daylight
07 Feb - 06:39:19 10° SW 06:43:19 24° SSE 06:48:52 10° ESE daylight
07 Feb - 09:02:06 10° WSW 09:07:46 33° S 09:17:17 10° SE daylight
07 Feb - 11:26:44 10° WSW 11:33:41 23° SSW 11:44:25 10° SSE daylight
